TIANMU-1 06

Last updated on Wed Sep 17 2025 00:02:23 GMT+0000 (Coordinated Universal Time)

1 55976U 23039D 25259.51111735 .00013761 00000+0 37318-3 0 9998 2 55976 97.5083 60.0889 0004154 36.4833 323.6694 15.37742143138640
UTC large
Height (km)
Speed (km/s)
/
Latitude / Longitude
Inclination (degrees)
Orbital Period (minutes)
Azimuth
Elevation
Range (km)
Doppler Factor

Next 0 passes for location: London (51.5072 / 0.1276)

Sorry there are no passes over London.